Погода в Уптаре

Россия / Магаданская область     59°53′58″N   150°52′22″E
темп.,
°C
ветер,
м/с
пор.,
м/с
влажн.,
%
обл.,
%
осадки,
мм/ч
давл.,
гПа
погр.,
м
18 октября, пн
пн1823:00−13с6764100 0.0 1012214
02:00−14ссв5764100 0.0 1008224
05:00−13с6962100 0.0 1005322
08:00−12с71057100 0.0 1003507
11:00−10с81248100 0.0 1001853
14:00−9с81145100 0.0 1001871
17:00−11с81149100 0.0 1001822
20:00−13с6105794 0.0 1003574
19 октября, вт
вт1923:00−15с586214 0.0 1004298
02:00−16ссз58630 0.0 1004232
05:00−16ссз58650 0.0 1005221
08:00−17ссз47665 0.0 1005208
11:00−14ссз57525 0.0 1006468
14:00−12с79450 0.0 1005875
17:00−13ссз58540 0.0 1006543
20:00−15с57630 0.0 1008227
20 октября, ср
ср2023:00−16с47650 0.0 1010202
02:00−16с47650 0.0 1011163
05:00−16с46640 0.0 1012120
08:00−16с45640 0.0 101390
11:00−12с45500 0.0 1012274
14:00−10с45440 0.0 1011527
17:00−12с34560 0.0 1011147
20:00−14с33600 0.0 101263
21 октября, чт
чт2123:00−15с33590 0.0 101152
02:00−15с33580 0.0 101038
05:00−16с32570 0.0 101025
08:00−16с32570 0.0 101022
11:00−12ссз22410 0.0 1009165
14:00−9сз22365 0.0 1008331
17:00−11ссз22525 0.0 100826
20:00−13с22575 0.0 100922
22 октября, пт
пт2223:00−14с22525 0.0 100919
02:00−15с22505 0.0 100915
05:00−15с22495 0.0 100913
08:00−15с22495 0.0 100813
11:00−11с11345 0.0 1007118
14:00−9з102742 0.0 1006264
17:00−10сз003853 0.0 100610
20:00−12ссв11465 0.0 100610